Time,TemperatureF,DewpointF,PressureIn,WindDirection,WindDirectionDegrees,WindSpeedMPH,WindSpeedGustMPH,Humidity,HourlyPrecipIn,Conditions,Clouds,dailyrainin,SoftwareType,DateUTC
2013-09-10 00:13:00,72.2,70.0,30.00,SSE,157,0.0,0.0,91,0.00,,,0.00,weatherlink.com 1.10,2013-09-10 05:13:00,
2013-09-10 00:28:00,72.0,70.0,30.00,SSE,157,0.0,0.0,92,0.00,,,0.00,weatherlink.com 1.10,2013-09-10 05:28:00,
2013-09-10 00:43:00,72.0,70.0,30.00,South,180,0.0,0.0,92,0.00,,,0.00,weatherlink.com 1.10,2013-09-10 05:43:00,
2013-09-10 00:58:00,72.0,70.0,30.00,South,180,0.0,0.0,92,0.00,,,0.00,weatherlink.com 1.10,2013-09-10 05:58:00,
2013-09-10 01:13:00,72.0,70.0,30.01,South,180,0.0,0.0,92,0.00,,,0.00,weatherlink.com 1.10,2013-09-10 06:13:00,
2013-09-10 01:28:00,72.0,70.0,30.01,South,180,0.0,0.0,92,0.00,,,0.00,weatherlink.com 1.10,2013-09-10 06:28:00,
2013-09-10 01:43:00,71.9,70.0,30.01,South,180,0.0,0.0,92,0.00,,,0.00,weatherlink.com 1.10,2013-09-10 06:43:00,
2013-09-10 01:58:00,71.8,70.0,30.01,South,180,0.0,0.0,93,0.00,,,0.00,weatherlink.com 1.10,2013-09-10 06:58:00,
2013-09-10 02:13:00,71.8,70.0,30.01,South,180,0.0,0.0,93,0.00,,,0.00,weatherlink.com 1.10,2013-09-10 07:13:00,
2013-09-10 02:28:00,71.9,70.0,30.01,South,180,0.0,0.0,93,0.00,,,0.00,weatherlink.com 1.10,2013-09-10 07:28:00,
2013-09-10 02:43:00,72.0,70.0,30.01,South,180,0.0,0.0,93,0.00,,,0.00,weatherlink.com 1.10,2013-09-10 07:43:00,
2013-09-10 02:58:00,72.3,70.0,30.01,South,180,0.0,0.0,93,0.00,,,0.00,weatherlink.com 1.10,2013-09-10 07:58:00,
2013-09-10 03:14:00,72.4,71.0,30.02,South,180,0.0,0.0,94,0.00,,,0.00,weatherlink.com 1.10,2013-09-10 08:14:00,
2013-09-10 03:29:00,72.4,71.0,30.02,South,180,0.0,0.0,94,0.00,,,0.00,weatherlink.com 1.10,2013-09-10 08:29:00,
2013-09-10 03:44:00,72.5,71.0,30.02,South,180,0.0,0.0,94,0.00,,,0.00,weatherlink.com 1.10,2013-09-10 08:44:00,
2013-09-10 03:59:00,72.7,71.0,30.02,South,180,0.0,0.0,94,0.00,,,0.00,weatherlink.com 1.10,2013-09-10 08:59:00,
2013-09-10 04:14:00,72.8,71.0,30.02,South,180,0.0,0.0,94,0.00,,,0.00,weatherlink.com 1.10,2013-09-10 09:14:00,
2013-09-10 04:29:00,72.8,71.0,30.03,South,180,0.0,0.0,93,0.00,,,0.00,weatherlink.com 1.10,2013-09-10 09:29:00,
2013-09-10 04:44:00,72.8,71.0,30.03,South,180,0.0,0.0,94,0.00,,,0.00,weatherlink.com 1.10,2013-09-10 09:44:00,
2013-09-10 04:59:00,72.9,71.0,30.03,SSE,166,0.0,1.0,94,0.00,,,0.00,weatherlink.com 1.10,2013-09-10 09:59:00,
2013-09-10 05:14:00,73.0,71.0,30.04,SSE,166,0.0,0.0,94,0.00,,,0.00,weatherlink.com 1.10,2013-09-10 10:14:00,
2013-09-10 05:29:00,72.7,71.0,30.04,SSE,166,0.0,0.0,93,0.00,,,0.00,weatherlink.com 1.10,2013-09-10 10:29:00,
2013-09-10 05:44:00,72.4,70.0,30.05,SSE,166,0.0,0.0,93,0.00,,,0.00,weatherlink.com 1.10,2013-09-10 10:44:00,
2013-09-10 05:59:00,72.2,70.0,30.05,SSE,166,0.0,0.0,93,0.00,,,0.00,weatherlink.com 1.10,2013-09-10 10:59:00,
2013-09-10 06:14:00,72.0,70.0,30.06,SSE,166,0.0,0.0,93,0.00,,,0.00,weatherlink.com 1.10,2013-09-10 11:14:00,
2013-09-10 06:29:00,71.8,70.0,30.06,SSE,166,0.0,0.0,93,0.00,,,0.00,weatherlink.com 1.10,2013-09-10 11:29:00,
2013-09-10 06:44:00,71.5,69.0,30.07,SSE,166,0.0,0.0,93,0.00,,,0.00,weatherlink.com 1.10,2013-09-10 11:44:00,
2013-09-10 06:59:00,71.2,69.0,30.07,SSE,166,0.0,0.0,93,0.00,,,0.00,weatherlink.com 1.10,2013-09-10 11:59:00,
2013-09-10 07:14:00,71.0,69.0,30.07,SSE,166,0.0,0.0,93,0.00,,,0.00,weatherlink.com 1.10,2013-09-10 12:14:00,
2013-09-10 07:29:00,71.1,69.0,30.08,SSE,166,0.0,0.0,94,0.00,,,0.00,weatherlink.com 1.10,2013-09-10 12:29:00,
2013-09-10 07:44:00,71.6,70.0,30.08,SSE,166,0.0,0.0,94,0.00,,,0.00,weatherlink.com 1.10,2013-09-10 12:44:00,
2013-09-10 07:59:00,72.6,71.0,30.09,SW,230,0.0,1.0,95,0.00,,,0.00,weatherlink.com 1.10,2013-09-10 12:59:00,
2013-09-10 08:14:00,73.7,72.0,30.09,SW,230,0.0,1.0,95,0.00,,,0.00,weatherlink.com 1.10,2013-09-10 13:14:00,
2013-09-10 08:29:00,74.9,73.0,30.09,SW,230,0.0,2.0,92,0.00,,,0.00,weatherlink.com 1.10,2013-09-10 13:29:00,
2013-09-10 08:44:00,76.1,72.0,30.11,SW,236,1.0,2.0,88,0.00,,,0.00,weatherlink.com 1.10,2013-09-10 13:44:00,
2013-09-10 08:59:00,77.4,73.0,30.11,SW,231,3.0,3.0,85,0.00,,,0.00,weatherlink.com 1.10,2013-09-10 13:59:00,
2013-09-10 09:14:00,79.1,73.0,30.10,SW,232,2.0,5.0,81,0.00,,,0.00,weatherlink.com 1.10,2013-09-10 14:14:00,
2013-09-10 09:29:00,80.5,73.0,30.10,SW,232,3.0,3.0,79,0.00,,,0.00,weatherlink.com 1.10,2013-09-10 14:29:00,
2013-09-10 09:45:00,81.6,73.0,30.11,SW,214,2.0,4.0,76,0.00,,,0.00,weatherlink.com 1.10,2013-09-10 14:45:00,
2013-09-10 10:00:00,82.5,73.0,30.11,SW,228,1.0,3.0,73,0.00,,,0.00,weatherlink.com 1.10,2013-09-10 15:00:00,
2013-09-10 10:15:00,83.4,74.0,30.11,SW,215,1.0,2.0,72,0.00,,,0.00,weatherlink.com 1.10,2013-09-10 15:15:00,
2013-09-10 10:30:00,84.0,74.0,30.11,SW,214,0.0,2.0,72,0.00,,,0.00,weatherlink.com 1.10,2013-09-10 15:30:00,
2013-09-10 10:45:00,84.4,74.0,30.11,SW,214,0.0,0.0,72,0.00,,,0.00,weatherlink.com 1.10,2013-09-10 15:45:00,
2013-09-10 11:00:00,84.8,75.0,30.11,SW,214,1.0,1.0,72,0.00,,,0.00,weatherlink.com 1.10,2013-09-10 16:00:00,
2013-09-10 11:15:00,85.3,75.0,30.11,NE,36,0.0,3.0,70,0.00,,,0.00,weatherlink.com 1.10,2013-09-10 16:15:00,
2013-09-10 11:30:00,85.7,73.0,30.11,NNW,346,0.0,4.0,66,0.00,,,0.00,weatherlink.com 1.10,2013-09-10 16:30:00,
2013-09-10 11:45:00,86.0,74.0,30.11,NE,36,1.0,3.0,68,0.00,,,0.00,weatherlink.com 1.10,2013-09-10 16:45:00,
2013-09-10 12:00:00,86.5,72.0,30.11,ENE,65,2.0,8.0,62,0.00,,,0.00,weatherlink.com 1.10,2013-09-10 17:00:00,
2013-09-10 12:15:00,86.6,72.0,30.11,NE,38,2.0,4.0,62,0.00,,,0.00,weatherlink.com 1.10,2013-09-10 17:15:00,
2013-09-10 12:30:00,86.8,73.0,30.11,NE,34,0.0,3.0,63,0.00,,,0.00,weatherlink.com 1.10,2013-09-10 17:30:00,
2013-09-10 12:45:00,86.6,74.0,30.11,NE,44,2.0,3.0,66,0.00,,,0.00,weatherlink.com 1.10,2013-09-10 17:45:00,
2013-09-10 13:00:00,86.5,73.0,30.11,NE,55,1.0,5.0,65,0.00,,,0.00,weatherlink.com 1.10,2013-09-10 18:00:00,
2013-09-10 13:15:00,86.6,74.0,30.11,NE,40,1.0,4.0,67,0.00,,,0.00,weatherlink.com 1.10,2013-09-10 18:15:00,
2013-09-10 13:30:00,87.0,74.0,30.10,NE,40,2.0,4.0,66,0.00,,,0.00,weatherlink.com 1.10,2013-09-10 18:30:00,
2013-09-10 13:45:00,87.8,74.0,30.09,ENE,59,0.0,4.0,64,0.00,,,0.00,weatherlink.com 1.10,2013-09-10 18:45:00,
2013-09-10 14:01:00,88.3,74.0,30.08,NE,53,0.0,4.0,62,0.00,,,0.00,weatherlink.com 1.10,2013-09-10 19:01:00,
2013-09-10 14:15:00,88.2,76.0,30.07,East,100,0.0,2.0,68,0.00,,,0.00,weatherlink.com 1.10,2013-09-10 19:15:00,
2013-09-10 14:30:00,88.5,75.0,30.07,NE,45,3.0,5.0,65,0.00,,,0.00,weatherlink.com 1.10,2013-09-10 19:30:00,
2013-09-10 14:45:00,88.5,75.0,30.06,NE,54,2.0,3.0,64,0.00,,,0.00,weatherlink.com 1.10,2013-09-10 19:45:00,
2013-09-10 15:00:00,89.1,75.0,30.05,NE,51,0.0,6.0,64,0.00,,,0.00,weatherlink.com 1.10,2013-09-10 20:00:00,
2013-09-10 15:15:00,89.9,75.0,30.05,SSE,166,0.0,4.0,61,0.00,,,0.00,weatherlink.com 1.10,2013-09-10 20:15:00,
2013-09-10 15:30:00,90.4,77.0,30.05,NNE,32,0.0,6.0,65,0.00,,,0.00,weatherlink.com 1.10,2013-09-10 20:30:00,
2013-09-10 15:45:00,90.7,77.0,30.05,East,86,0.0,5.0,64,0.00,,,0.00,weatherlink.com 1.10,2013-09-10 20:45:00,
2013-09-10 16:00:00,91.4,77.0,30.05,SSW,201,0.0,2.0,63,0.00,,,0.00,weatherlink.com 1.10,2013-09-10 21:00:00,
2013-09-10 16:15:00,91.3,77.0,30.04,SSW,203,0.0,2.0,64,0.00,,,0.00,weatherlink.com 1.10,2013-09-10 21:15:00,
2013-09-10 16:30:00,91.3,77.0,30.04,South,181,0.0,2.0,63,0.00,,,0.00,weatherlink.com 1.10,2013-09-10 21:30:00,
2013-09-10 16:45:00,91.0,77.0,30.05,NNE,33,0.0,1.0,63,0.00,,,0.00,weatherlink.com 1.10,2013-09-10 21:45:00,
2013-09-10 17:00:00,90.0,77.0,30.05,ESE,110,0.0,1.0,66,0.00,,,0.00,weatherlink.com 1.10,2013-09-10 22:00:00,
2013-09-10 17:15:00,88.9,77.0,30.05,South,176,1.0,2.0,68,0.00,,,0.00,weatherlink.com 1.10,2013-09-10 22:15:00,
2013-09-10 17:30:00,88.0,76.0,30.05,SE,136,0.0,2.0,68,0.00,,,0.00,weatherlink.com 1.10,2013-09-10 22:30:00,
2013-09-10 17:45:00,87.7,77.0,30.05,SE,136,0.0,1.0,71,0.00,,,0.00,weatherlink.com 1.10,2013-09-10 22:45:00,
2013-09-10 18:00:00,86.8,77.0,30.06,SE,136,0.0,0.0,73,0.00,,,0.00,weatherlink.com 1.10,2013-09-10 23:00:00,
2013-09-10 18:15:00,85.7,77.0,30.06,SE,136,0.0,0.0,76,0.00,,,0.00,weatherlink.com 1.10,2013-09-10 23:15:00,
2013-09-10 18:30:00,84.7,77.0,30.06,SE,136,0.0,0.0,78,0.00,,,0.00,weatherlink.com 1.10,2013-09-10 23:30:00,
2013-09-10 18:45:00,83.3,75.0,30.07,SE,130,0.0,3.0,76,0.00,,,0.00,weatherlink.com 1.10,2013-09-10 23:45:00,
2013-09-10 19:00:00,82.3,75.0,30.07,ESE,116,0.0,0.0,78,0.00,,,0.00,weatherlink.com 1.10,2013-09-11 00:00:00,
2013-09-10 19:15:00,81.1,74.0,30.07,ESE,116,0.0,0.0,78,0.00,,,0.00,weatherlink.com 1.10,2013-09-11 00:15:00,
2013-09-10 19:31:00,79.8,73.0,30.08,ESE,116,0.0,0.0,79,0.00,,,0.00,weatherlink.com 1.10,2013-09-11 00:31:00,
2013-09-10 19:45:00,78.6,72.0,30.08,ESE,116,0.0,0.0,81,0.00,,,0.00,weatherlink.com 1.10,2013-09-11 00:45:00,
2013-09-10 20:01:00,77.7,72.0,30.09,ESE,116,0.0,0.0,83,0.00,,,0.00,weatherlink.com 1.10,2013-09-11 01:01:00,
2013-09-10 20:16:00,76.8,72.0,30.09,ESE,116,0.0,0.0,84,0.00,,,0.00,weatherlink.com 1.10,2013-09-11 01:16:00,
2013-09-10 20:31:00,76.1,72.0,30.09,ESE,116,0.0,0.0,86,0.00,,,0.00,weatherlink.com 1.10,2013-09-11 01:31:00,
2013-09-10 20:46:00,75.3,71.0,30.09,ESE,116,0.0,0.0,87,0.00,,,0.00,weatherlink.com 1.10,2013-09-11 01:46:00,
2013-09-10 21:01:00,74.6,71.0,30.10,ESE,116,0.0,0.0,88,0.00,,,0.00,weatherlink.com 1.10,2013-09-11 02:01:00,
2013-09-10 21:16:00,74.2,71.0,30.10,ESE,116,0.0,0.0,89,0.00,,,0.00,weatherlink.com 1.10,2013-09-11 02:16:00,
2013-09-10 21:31:00,73.7,70.0,30.10,ESE,116,0.0,0.0,89,0.00,,,0.00,weatherlink.com 1.10,2013-09-11 02:31:00,
2013-09-10 21:46:00,73.3,70.0,30.11,ESE,116,0.0,0.0,90,0.00,,,0.00,weatherlink.com 1.10,2013-09-11 02:46:00,
2013-09-10 22:01:00,73.0,70.0,30.11,ESE,116,0.0,0.0,91,0.00,,,0.00,weatherlink.com 1.10,2013-09-11 03:01:00,
2013-09-10 22:16:00,72.7,70.0,30.11,ESE,116,0.0,0.0,91,0.00,,,0.00,weatherlink.com 1.10,2013-09-11 03:16:00,
2013-09-10 22:31:00,72.5,70.0,30.10,ESE,116,0.0,0.0,91,0.00,,,0.00,weatherlink.com 1.10,2013-09-11 03:31:00,
2013-09-10 22:46:00,72.3,70.0,30.10,ESE,116,0.0,0.0,91,0.00,,,0.00,weatherlink.com 1.10,2013-09-11 03:46:00,
2013-09-10 23:01:00,72.0,69.0,30.09,ESE,116,0.0,0.0,91,0.00,,,0.00,weatherlink.com 1.10,2013-09-11 04:01:00,
2013-09-10 23:16:00,71.8,69.0,30.09,ESE,116,0.0,0.0,92,0.00,,,0.00,weatherlink.com 1.10,2013-09-11 04:16:00,
2013-09-10 23:31:00,71.5,69.0,30.09,ESE,116,0.0,0.0,92,0.00,,,0.00,weatherlink.com 1.10,2013-09-11 04:31:00,
2013-09-10 23:46:00,71.2,69.0,30.09,ESE,116,0.0,0.0,92,0.00,,,0.00,weatherlink.com 1.10,2013-09-11 04:46:00,